Showing default

OKEAN 1, 19274

Orbit data source: Space-Track

OKEAN 1, 19274 is a Commonwealth of Independent States-origin payload satellite in LEO that was launched on Tue, 05 Jul 1988 UTC via a TSIKLON-3 launch vehicle from the Plesetsk Missile And Space Complex (PKMTR). Payload-class satellites include a variety of spacecraft equipped with specific instruments for various scientific and technological missions. These include communications satellites like Starlink; space stations such as the ISS; scientific satellites like the Hubble; Earth observation satellites from companies like Planet Labs, Umbra, and HawkEye 360; GPS; miniature CubeSats for education and research; and military/defense satellites.

Loading next visibility...
Identifier
19274, 1988-056A
Orbit
LEO
Country
Flag of CISCIS
Related business
Manufacturer
Yuzhnoe
Mission
Defense Imaging
Bus & Motor
OKEAN, Unknown motor
Mass
1,944 kg wet, 1,944 kg dry
Launch date (UTC)
1988-07-05 (37 years ago)
Launch vehicle
TSIKLON-3
Launch site
Plesetsk Missile And Space Complex (PKMTR)
Object type
Payload
Rocket body
Debris
Shape & HBR
Cone + 2 Pan, 10.8 m
Radar Cross Section
2.079 m², Large (>1 m²)

Expand to show TLE details & history
Last TLE update: 14 hours ago

TLE from 14 hours ago
0 OKEAN 1
1 19274U 88056A   25259.21424333  .00009218  00000-0  34322-3 0  9992
2 19274  82.4689  79.6306 0015294  72.5775 287.7135 15.27220203  8417
Epoch: 2025-09-16T05:08Z
TLE epoch observation values (Epoch: 2025-09-16T05:08:30.623Z)
Latitude
0.00002°
Longitude
7.09525°
Altitude
484.044 km
Speed
7.625 km/s
True Right ascension
05h 18m 31s
True Declination
0° 00' 00"
Sunlit
Object was in daylight at epoch
Visualization orbit readout
Latitude
Unknown
Longitude
Unknown
Altitude
Unknown
Speed
Unknown
Apparent Right ascension
Unknown
Apparent Declination
Unknown
Sunlit
N/A
Visualization observer readout
Local Sidereal Time
11:30:08
Azimuth
Unknown
Elevation
Unknown
Doppler factor
Unknown
Orbital elements
Apogee altitude
491.579 km
Perigee altitude
470.598 km
Semi-major axis
6,859.225 km
Eccentricity
0.00153
Inclination
82.4689°
RAAN
79.6306°
Arg. of periapsis
72.5775°
True anomaly
287.54646°
Mean anomaly
287.7135°
Eccentric anomaly
287.62999°
Mean motion
3.82059 °/min
Orbital period
94.23 mins
BSTAR
0.00034322
Loading maneuver chart data...
Computing Atmospheric mass density...
Loading historical data...
Loading historical data...
Loading historical data...
Loading historical data...
Loading historical data...
Loading historical data...
Loading historical data...
Other satellites on launch #56 in the year 1988 (1988-07-05 UTC)

Documentation

Showing up to 5 results
|